Flag for Russia Weather past 2 weeks in Novorossiysk, Russia

Now
52 °F

More clouds than sun.


Feels Like: 47 °F
Forecast: 31 / 54 °F
Wind: 15 mph from South

Location: Anapa / Vitiazevo

Current Time: Dec 27, 2014 at 4:41:23 PM

Latest Report: Dec 27, 2014 at 4:00 PM


Visibility: N/A

Pressure: 29.68 "Hg

Humidity: 82%

Dew point: 46 °F

Location of NovorossiyskLocation

Historic Weather in Novorossiysk — Graph

°F

Novorossiysk temperature yesterday

Maximum temperature yesterday: 48 °F (at 12:00 AM)
Minimum temperature yesterday: 34 °F (at 7:00 AM)
Average temperature yesterday: 42 °F

Past Weeks' High & Low Weather Summary

 TemperatureHumidityPressure
High57 °F (Dec 18, 2:00 PM)100% (Dec 13, 3:00 AM)30.36 "Hg (Dec 13, 3:00 AM)
Low30 °F (Dec 14, 8:30 AM)55% (Dec 18, 3:30 PM)29.71 "Hg (Dec 27, 1:30 PM)
Average45 °F86%30.09 "Hg
* Reported Dec 12 3:00 PM — Dec 27 3:30 PM, Novorossiysk, Weather by CustomWeather, © 2014

Note: Actual official high and low records may vary slightly from our data, if they occured in-between our weather recording intervals... More about our weather records

Advertising

Novorossiysk weather history for previous 24 hours

 ConditionsComfort  
Time TempWeatherWind HumidityBarometerVisibility
3:30 PM
Dec 27
52 °FMore clouds than sun.15 mph82%29.71 "HgN/A
3:00 PM52 °FSprinkles. More clouds than sun.13 mph82%29.71 "HgN/A
2:30 PM54 °FSprinkles. More clouds than sun.17 mph77%29.71 "HgN/A
2:00 PM54 °FMore clouds than sun.17 mph77%29.71 "HgN/A
1:30 PM54 °FMore clouds than sun.15 mph77%29.71 "HgN/A
1:00 PM54 °FSprinkles. More clouds than sun.15 mph82%29.74 "HgN/A
12:30 PM52 °FSprinkles. More clouds than sun.15 mph88%29.74 "HgN/A
12:00 PM54 °FSprinkles. Broken clouds.20 mph82%29.77 "HgN/A
11:30 AM50 °FSprinkles. Broken clouds.13 mph88%29.77 "HgN/A
11:00 AM48 °FSunny.3 mph94%29.77 "Hg10 mi
10:30 AM45 °FBroken clouds.3 mph93%29.80 "Hg4 mi
10:00 AM41 °FBroken clouds.10 mph93%29.80 "Hg4 mi
9:30 AM41 °FFog.13 mph93%29.80 "Hg3 mi
9:00 AM39 °FFog.20 mph93%29.80 "Hg3 mi
8:30 AM39 °FLight rain. Fog.24 mph93%29.80 "Hg3 mi
8:00 AM39 °FFog.17 mph93%29.86 "Hg3 mi
7:30 AM39 °FOvercast.20 mph93%29.86 "Hg4 mi
6:30 AM39 °FMostly cloudy.17 mph93%29.86 "Hg4 mi
6:00 AM39 °FMostly cloudy.20 mph93%29.86 "Hg4 mi
5:00 AM39 °FMostly cloudy.22 mph93%29.89 "Hg4 mi
4:00 AM39 °FFog.20 mph93%29.92 "Hg3 mi
3:00 AM39 °FMostly cloudy.22 mph93%29.92 "Hg4 mi
2:00 AM39 °FMostly cloudy.20 mph93%29.95 "HgN/A
1:00 AM39 °FLight rain. Fog.20 mph93%29.98 "Hg3 mi
12:00 AM41 °FLight rain. Mostly cloudy.17 mph87%29.98 "HgN/A
11:00 PM
Dec 26
41 °FMostly cloudy.17 mph87%29.98 "HgN/A
10:00 PM41 °FSprinkles. Mostly cloudy.17 mph87%30.01 "Hg4 mi
9:00 PM41 °FLight rain. Mostly cloudy.17 mph93%30.04 "Hg4 mi
8:00 PM43 °FLight rain. Fog.17 mph93%30.04 "Hg3 mi
7:00 PM43 °FSprinkles. Mostly cloudy.15 mph93%30.04 "HgN/A
6:30 PM45 °FMostly cloudy.8 mph81%30.04 "HgN/A
6:00 PM43 °FMostly cloudy.8 mph87%30.04 "HgN/A
5:30 PM43 °FSunny.6 mph87%30.04 "Hg10 mi
5:00 PM43 °FSunny.8 mph87%30.04 "Hg10 mi
4:30 PM45 °FSunny.8 mph81%30.04 "Hg10 mi
4:00 PM45 °FSunny.8 mph81%30.07 "Hg10 mi
Weather by CustomWeather, © 2014

See weather overviewHow to use our weather pages